This is the latest recevied weather packets stored in our database for station/object KF5JED-13. If no packets are shown the sender has not sent any weather packets the latest 10 day(s).
| Time | Temp. | Humidity | Pressure | Rain* | Wind** | Luminosity | Snow |
|---|---|---|---|---|---|---|---|
| 1777562666 | 11.11° C | 70% | 1017.7 hPa | 0 mm | - | 329 W/m² | - |
| 1777562360 | 11.11° C | 70% | 1017.6 hPa | 0 mm | - | 258 W/m² | - |
| 1777562056 | 11.11° C | 71% | 1017.6 hPa | 0 mm | - | 360 W/m² | - |
| 1777561753 | 11.11° C | 71% | 1017.7 hPa | 0 mm | - | 363 W/m² | - |
| 1777561449 | 11.11° C | 72% | 1017.6 hPa | 0 mm | - | 282 W/m² | - |
| 1777561144 | 11.11° C | 72% | 1017.8 hPa | 0 mm | - | 248 W/m² | - |
| 1777560839 | 10.56° C | 73% | 1017.8 hPa | 0 mm | - | 313 W/m² | - |
| 1777560537 | 10.56° C | 73% | 1017.9 hPa | 0 mm | - | 202 W/m² | - |
| 1777560235 | 10.56° C | 73% | 1017.9 hPa | 0 mm | - | 340 W/m² | - |
| 1777559931 | 10.56° C | 73% | 1017.8 hPa | 0 mm | - | 335 W/m² | - |
| 1777559626 | 10° C | 74% | 1017.8 hPa | 0 mm | - | 317 W/m² | - |
| 1777559325 | 9.44° C | 75% | 1017.9 hPa | 0 mm | - | 188 W/m² | - |
| 1777559020 | 9.44° C | 75% | 1018 hPa | 0 mm | - | 147 W/m² | - |
| 1777558716 | 9.44° C | 75% | 1018.2 hPa | 0 mm | - | 163 W/m² | - |
| 1777558412 | 9.44° C | 74% | 1018.2 hPa | 0 mm | - | 173 W/m² | - |
| 1777558108 | 10° C | 74% | 1018.4 hPa | 0 mm | - | 159 W/m² | - |
| 1777557805 | 9.44° C | 75% | 1018.2 hPa | 0 mm | - | 194 W/m² | - |
| 1777557502 | 9.44° C | 75% | 1018.1 hPa | 0 mm | - | 151 W/m² | - |
| 1777557198 | 9.44° C | 75% | 1018.4 hPa | 0 mm | - | 140 W/m² | - |
| 1777556894 | 9.44° C | 75% | 1018.4 hPa | 0 mm | - | 148 W/m² | - |
| 1777556589 | 8.89° C | 76% | 1018.5 hPa | 0 mm | - | 124 W/m² | - |
| 1777556289 | 8.89° C | 76% | 1018.2 hPa | 0 mm | - | 119 W/m² | - |
| 1777555986 | 8.89° C | 76% | 1018 hPa | 0 mm | - | 110 W/m² | - |
| 1777555681 | 8.89° C | 76% | 1017.8 hPa | 0 mm | - | 105 W/m² | - |
| 1777555377 | 8.89° C | 77% | 1017.9 hPa | 0 mm | - | 97 W/m² | - |
* Rain latest hour (hover to see other rain measurements)
** Current wind speed in m/s (hover to see current wind gust speed)